Simultaneous Nadir Overpasses (SNOs) Predictions

Prediction of SNOs between NOAA-15 and METOP-C Satellite Orbit:

Table of predicted SNOs for the next 14.0 days since TLE Epoch: 8/14/2023
Index Date (NOAA-15) Time (NOAA-15) Lat,Lon (NOAA-15) SZA (NOAA-15 ) Date (METOP-C) Time (METOP-C) Lat,Lon (METOP-C) SZA (METOP-C ) Distance(km) Time Diff (sec)
1 08/27/2023 14:53:02 -81.09, 174.86 107.04 08/27/2023 14:51:54 -81.09, 174.96 107.06 1.79 68
2 08/27/2023 15:43:33 81.08, -17.57 72.99 08/27/2023 15:42:35 81.09, -17.59 72.98 1.47 58
3 08/27/2023 16:34:03 -81.09, 149.53 107.02 08/27/2023 16:33:16 -81.09, 149.52 107.05 0.93 47
4 08/27/2023 17:24:34 81.09, -42.91 73.01 08/27/2023 17:23:57 81.09, -43.03 72.99 2.20 37
5 08/27/2023 18:15:03 -81.08, 124.56 106.98 08/27/2023 18:14:37 -81.10, 124.44 106.99 2.61 26
6 08/27/2023 19:05:35 81.09, -68.25 73.03 08/27/2023 19:05:18 81.10, -68.11 73.05 2.78 17
7 08/27/2023 19:56:05 -81.10, 98.86 106.98 08/27/2023 19:55:59 -81.09, 99.00 106.98 2.60 6
8 08/27/2023 20:46:36 81.09, -93.59 73.05 08/27/2023 20:46:40 81.10, -93.55 73.06 0.76 4
9 08/27/2023 21:37:05 -81.09, 73.89 106.94 08/27/2023 21:37:20 -81.10, 73.92 106.92 1.63 15
10 08/27/2023 22:27:37 81.10,-118.93 73.07 08/27/2023 22:28:02 81.09,-119.00 73.07 1.27 25
11 08/27/2023 23:18:06 -81.09, 48.56 106.92 08/27/2023 23:18:42 -81.10, 48.48 106.91 1.57 36
12 08/28/2023 00:08:38 81.10,-144.27 73.09 08/28/2023 00:09:24 81.09,-144.44 73.08 3.28 46
13 08/28/2023 00:59:07 -81.09, 23.23 106.90 08/28/2023 01:00:04 -81.09, 23.03 106.89 3.34 57
14 08/28/2023 01:49:39 81.10,-169.61 73.11 08/28/2023 01:50:45 81.10,-169.52 73.14 1.74 66



Historial Predications of SNOs between NOAA-15 and METOP-C
